Location: Seven Kings
(51.5667°N, 0.1000°E)
Time: 02:47:46
(UTC+00:00)

NOSS 3-4 (A) - Pass Details

Date: 29 October 2020
Orbit: 885 x 1327 km, 63.4° (Epoch: 06 November)

Event Time Altitude Azimuth Distance (km) Brightness Sun altitude
Rises 17:50:49 0° 311° (NW) 3,716 7.2 -11.9°
Reaches altitude 10° 17:53:23 10° 316° (NW) 2,822 6.4 -12.3°
Maximum altitude 17:59:56 52° 33° (NNE) 1,350 4.0 -13.3°
Enters shadow 18:05:39 17° 105° (ESE) 2,619 5.2 -14.2°
